ARIANE 44LP DEB, 25543

Orbit data source: Space-Track

ARIANE 44LP DEB, 25543 is space debris in HEO originally from a launch on Sun, 11 Dec 1988 UTC launched from the French Guiana (FRGUI). Debris objects in space refer to the collection of defunct objects orbiting the Earth. Examples of debris include non-operational satellites, rocket bodies, and fragments generated from explosions, collisions, or faulty payload assembly.

Loading next visibility...
Identifier
25543, 1988-109K
Orbit
HEO
Country
Flag of FRFR
Related business
Manufacturer
Unknown
Mission
Spacecraft
Bus & Motor
Unknown
Mass
Unknown
Launch date (UTC)
1988-12-11 (38 years ago)
Launch vehicle
Unknown
Launch site
French Guiana (FRGUI)
Object type
Payload
Rocket body
Debris
Shape & HBR
Unknown shape, 2.8 m
Radar Cross Section
Large (>1 m²)

Expand to show TLE details & history
Last TLE update: 2 days ago

TLE from 2 days ago
0 ARIANE 44LP DEB
1 25543U 88109K   26171.37855081  .00000136  00000-0  67301-3 0  9999
2 25543   6.4927 225.3378 7185365  77.7944 348.0926  2.30726746236754
Epoch: 2026-06-20T09:05Z
TLE epoch observation values (Epoch: 2026-06-20T09:05:06.789Z)
Latitude
-0.00003°
Longitude
-179.26756°
Altitude
3,731.334 km
Speed
7.898 km/s
True Right ascension
15h 02m 25s
True Declination
0° 00' 00"
Sunlit
Object was in daylight at epoch
Visualization orbit readout
Latitude
Unknown
Longitude
Unknown
Altitude
Unknown
Speed
Unknown
Apparent Right ascension
Unknown
Apparent Declination
Unknown
Sunlit
N/A
Visualization observer readout
Local Sidereal Time
23:27:26
Azimuth
Unknown
Elevation
Unknown
Doppler factor
Unknown
Orbital elements
Apogee altitude
35,205.665 km
Perigee altitude
432.497 km
Semi-major axis
24,197.218 km
Eccentricity
0.71854
Inclination
6.4927°
RAAN
225.3378°
Arg. of periapsis
77.7944°
True anomaly
282.06159°
Mean anomaly
348.0926°
Eccentric anomaly
323.74741°
Mean motion
0.57663 °/min
Orbital period
624.32 mins
BSTAR
0.00067301
Loading maneuver chart data...
Computing Atmospheric mass density...
Loading historical data...
Loading historical data...
Loading historical data...
Loading historical data...
Loading historical data...
Loading historical data...
Loading historical data...

Documentation

Showing up to 5 results
|